Showing default

INNOCUBE (TUBSAT-31), 62616

Orbit data source: Space-Track

INNOCUBE (TUBSAT-31), 62616 is a payload satellite owned by TUB (DE) in SSO that was launched on Tue, 14 Jan 2025 UTC via an FALCON 9 launch vehicle from the Air Force Western Test Range (AFWTR). Payload-class satellites include a variety of spacecraft equipped with specific instruments for various scientific and technological missions. These include communications satellites like Starlink; space stations such as the ISS; scientific satellites like the Hubble; Earth observation satellites from companies like Planet Labs, Umbra, and HawkEye 360; GPS; miniature CubeSats for education and research; and military/defense satellites.

Loading next visibility...
Identifier
62616, 2025-009H
Orbit
SSO
Country
Flag of DEDE / GER
Related business
Manufacturer
TUB
Mission
Operational Amateur Technology
Bus & Motor
CUBESAT 3U, Unknown motor
Mass
~4 kg wet, ~4 kg dry
Launch date (UTC)
2025-01-14 (1 year ago)
Launch vehicle
FALCON 9
Launch site
Air Force Western Test Range (AFWTR)
Object type
Payload
Rocket body
Debris
Shape & HBR
Box, 0.1 m
Radar Cross Section
0.035 m², Medium (>0.1 m² and < 1m²)

Expand to show TLE details & history
Last TLE update: 1 day ago

TLE from 1 day ago
0 INNOCUBE (TUBSAT-31)
1 62616U 25009H   26170.77441444  .00005519  00000-0  21398-3 0  9994
2 62616  97.3900 250.7390 0004823 336.2696  23.8320 15.26531812 79210
Epoch: 2026-06-19T18:35Z
TLE epoch observation values (Epoch: 2026-06-19T18:35:09.407Z)
Latitude
0.00001°
Longitude
63.95124°
Altitude
486.26 km
Speed
7.624 km/s
True Right ascension
16h 42m 57s
True Declination
0° 00' 00"
Sunlit
Object was in full shadow at epoch
Visualization orbit readout
Latitude
Unknown
Longitude
Unknown
Altitude
Unknown
Speed
Unknown
Apparent Right ascension
Unknown
Apparent Declination
Unknown
Sunlit
N/A
Visualization observer readout
Local Sidereal Time
07:23:32
Azimuth
Unknown
Elevation
Unknown
Doppler factor
Unknown
Orbital elements
Apogee altitude
486.455 km
Perigee altitude
479.837 km
Semi-major axis
6,861.283 km
Eccentricity
0.00048
Inclination
97.39°
RAAN
250.739°
Arg. of periapsis
336.2696°
True anomaly
23.85434°
Mean anomaly
23.832°
Eccentric anomaly
23.84317°
Mean motion
3.81887 °/min
Orbital period
94.27 mins
BSTAR
0.00021398
Loading maneuver chart data...
Computing Atmospheric mass density...
Loading historical data...
Loading historical data...
Loading historical data...
Loading historical data...
Loading historical data...
Loading historical data...
Loading historical data...

Documentation

Showing up to 5 results
|